Location: Newark
(45.6439°N, 0.5436°E)
Time: 08:25:03
(UTC+00:00)

N. Korean satellite - Pass Details

Date: 23 November 2019
Orbit: 455 x 506 km, 97.2° (Epoch: 10 December)

Event Time Altitude Azimuth Distance (km) Brightness Sun altitude
Rises 05:58:53 0° 11° (N) 2,612 10.2 -11.9°
Reaches altitude 10° 06:01:00 10° 10° (N) 1,717 9.3 -11.5°
Maximum altitude 06:04:42 82° 283° (WNW) 508 6.5 -10.9°
Drops below altitude 10° 06:08:19 10° 197° (SSW) 1,677 9.3 -10.3°
Sets 06:10:21 0° 196° (SSW) 2,545 10.3 -10.0°
